Quillayute, WA

9:43 AM PDT on March 27, 2017 (GMT -0700)
Quillayute

Weather History for KUIL - July, 2012

Change the Weather History Date:

Tuesday, July 3, 2012

  Actual Average Record
Temperature  
Mean Temperature 56 °F 58 °F  
Max Temperature 60 °F 66 °F 88 °F (1972)
Min Temperature 51 °F 50 °F 39 °F (1988)
Degree Days  
Heating Degree Days 9 8  
Month to date heating degree days 24  
Since 1 June heating degree days 318  
Since 1 July heating degree days 24  
Cooling Degree Days 0 0  
Month to date cooling degree days 0  
Year to date cooling degree days 4  
Since 1 June cooling degree days 3  
Growing Degree Days 6 (Base 50)    
Moisture  
Dew Point 49 °F    
Average Humidity 84    
Maximum Humidity 100    
Minimum Humidity 57    
Precipitation  
Precipitation 0.75 in 0.08 in 2.57 in (1980)
Month to date precipitation 0.24  
Year to date precipitation 52.49  
Sea Level Pressure  
Sea Level Pressure 29.98 in    
Wind  
Wind Speed 7 mph (West)    
Max Wind Speed 18 mph    
Max Gust Speed 24 mph    
Visibility 6 miles    
Events Rain    
T = Trace of Precipitation, MM = Missing Value Source: NWS Daily Summary

Daily Weather History Graph

Daily Weather History Graph

Search for Another Location

Airport or City:

Trip Planner

Search our weather history database for the weather conditions in past years. The results will help you decide how hot, cold, wet, or windy it might be!

Date:

Astronomy

Jul. 03, 2012 Rise Set
Actual Time 5:24 AM PDT 9:20 PM PDT
Civil Twilight 4:44 AM PDT 10:00 PM PDT
Nautical Twilight 3:48 AM PDT 10:56 PM PDT
Astronomical Twilight 2:19 AM PDT 12:23 AM PDT
Moon 9:12 PM PDT (7/3) 5:28 AM PDT (7/3)
Length of Visible Light 17h 16m
Length of Day
15h 55m
Full, 100% of the Moon is Illuminated
Jul 3
Full
Jul 10
Last Quarter
Jul 18
New
Jul 26
First Quarter
Aug 1
Full

Hourly Weather History & Observations

Time (PDT) Temp. Dew Point Humidity Pressure Visibility Wind Dir Wind Speed Gust Speed Precip Events Conditions
12:07 AM 51.8 °F 50.0 °F 94% 29.85 in 3.0 mi SE 4.6 mph - 0.02 in Rain Light Rain
12:11 AM 51.8 °F 50.0 °F 94% 29.85 in 2.5 mi SE 3.5 mph - 0.02 in Rain Light Rain
12:31 AM 51.8 °F 50.0 °F 94% 29.84 in 1.2 mi ESE 3.5 mph - 0.05 in Rain Rain
12:38 AM 51.8 °F 50.0 °F 94% 29.84 in 2.0 mi ESE 3.5 mph - 0.05 in Rain Light Rain
12:53 AM 52.0 °F 50.0 °F 93% 29.84 in 4.0 mi SSE 3.5 mph - 0.06 in Rain Light Rain
1:03 AM 51.8 °F 51.8 °F 100% 29.84 in 1.8 mi Calm Calm - 0.03 in Rain Heavy Rain
1:12 AM 51.8 °F 50.0 °F 94% 29.84 in 1.0 mi Calm Calm - 0.14 in Rain Heavy Rain
1:19 AM 51.8 °F 50.0 °F 94% 29.84 in 2.0 mi SW 6.9 mph - 0.18 in Rain Rain
1:29 AM 53.6 °F 51.8 °F 94% 29.84 in 4.0 mi Calm Calm - 0.21 in Rain Rain
1:49 AM 53.6 °F 51.8 °F 94% 29.83 in 4.0 mi Calm Calm - 0.31 in Rain Rain
1:53 AM 53.1 °F 51.1 °F 93% 29.83 in 6.0 mi ESE 3.5 mph - 0.31 in Rain Light Rain
2:04 AM 53.6 °F 50.0 °F 88% 29.83 in 10.0 mi ESE 3.5 mph - 0.00 in Rain Light Rain
2:18 AM 53.6 °F 51.8 °F 94% 29.84 in 1.8 mi Calm Calm - 0.04 in Rain Heavy Rain
2:30 AM 53.6 °F 51.8 °F 94% 29.84 in 3.0 mi NNW 5.8 mph - 0.13 in Rain Light Rain
2:34 AM 53.6 °F 51.8 °F 94% 29.84 in 4.0 mi WNW 3.5 mph - 0.14 in Rain Light Rain
2:53 AM 53.1 °F 51.1 °F 93% 29.85 in 8.0 mi WNW 4.6 mph - 0.15 in Rain Light Rain
3:03 AM 53.6 °F 50.0 °F 88% 29.85 in 5.0 mi West 8.1 mph - 0.00 in Rain Light Rain
3:25 AM 51.8 °F 48.2 °F 88% 29.85 in 5.0 mi West 6.9 mph 16.1 mph 0.01 in Rain Light Rain
3:53 AM 52.0 °F 50.0 °F 93% 29.86 in 6.0 mi Calm Calm - 0.02 in Rain Light Rain
4:00 AM 51.8 °F 50.0 °F 94% 29.86 in 2.5 mi West 6.9 mph - 0.01 in Rain Heavy Rain
4:03 AM 51.8 °F 50.0 °F 94% 29.86 in 2.0 mi West 8.1 mph - 0.03 in Rain Rain
4:05 AM 51.8 °F 48.2 °F 88% 29.86 in 1.8 mi West 11.5 mph - 0.03 in Rain Rain
4:12 AM 51.8 °F 48.2 °F 88% 29.86 in 2.5 mi West 10.4 mph - 0.04 in Rain Light Rain
4:20 AM 51.8 °F 48.2 °F 88% 29.86 in 3.0 mi West 10.4 mph 17.3 mph 0.06 in Rain Light Rain
4:32 AM 51.8 °F 48.2 °F 88% 29.86 in 10.0 mi West 11.5 mph 17.3 mph 0.06 in   Overcast
4:39 AM 51.8 °F 48.2 °F 88% 29.87 in 10.0 mi West 10.4 mph - 0.06 in   Overcast
4:53 AM 52.0 °F 48.9 °F 89% 29.87 in 10.0 mi West 9.2 mph 16.1 mph 0.06 in   Overcast
5:53 AM 52.0 °F 48.9 °F 89% 29.89 in 10.0 mi SW 6.9 mph - 0.00 in   Overcast
6:31 AM 51.8 °F 48.2 °F 88% 29.90 in 2.0 mi SW 6.9 mph - 0.00 in Rain Light Rain
6:36 AM 51.8 °F 48.2 °F 88% 29.90 in 1.2 mi WSW 9.2 mph - 0.03 in Rain Rain
6:40 AM 51.8 °F 50.0 °F 94% 29.90 in 1.5 mi SW 9.2 mph - 0.03 in Rain Light Rain
6:49 AM 51.8 °F 50.0 °F 94% 29.90 in 1.0 mi WSW 11.5 mph - 0.04 in Rain Rain
6:53 AM 52.0 °F 50.0 °F 93% 29.90 in 1.0 mi SW 9.2 mph - 0.09 in Rain Rain
6:57 AM 51.8 °F 50.0 °F 94% 29.90 in 1.5 mi SW 6.9 mph - 0.00 in Rain Light Rain
6:59 AM 51.8 °F 50.0 °F 94% 29.90 in 3.0 mi SW 8.1 mph - 0.00 in Rain Light Rain
7:07 AM 53.6 °F 50.0 °F 88% 29.90 in 9.0 mi WSW 5.8 mph - 0.00 in Rain Light Rain
7:53 AM 55.0 °F 52.0 °F 89% 29.93 in 10.0 mi SW 4.6 mph - 0.00 in   Mostly Cloudy
8:02 AM 55.4 °F 51.8 °F 88% 29.94 in 2.5 mi WSW 15.0 mph 24.2 mph 0.00 in Rain Light Rain
8:09 AM 53.6 °F 50.0 °F 88% 29.94 in 1.2 mi West 11.5 mph 24.2 mph 0.05 in Rain Rain
8:11 AM 53.6 °F 50.0 °F 88% 29.94 in 1.5 mi WNW 11.5 mph 24.2 mph 0.05 in Rain Rain
8:14 AM 53.6 °F 50.0 °F 88% 29.95 in 3.0 mi WNW 10.4 mph - 0.06 in Rain Rain
8:17 AM 53.6 °F 50.0 °F 88% 29.95 in 2.5 mi West 8.1 mph 17.3 mph 0.07 in Rain Rain
8:23 AM 53.6 °F 50.0 °F 88% 29.95 in 3.0 mi WNW 6.9 mph - 0.08 in Rain Light Rain
8:38 AM 53.6 °F 50.0 °F 88% 29.96 in 5.0 mi WNW 8.1 mph - 0.09 in Rain Light Rain
8:45 AM 53.6 °F 50.0 °F 88% 29.97 in 6.0 mi West 10.4 mph - 0.09 in Rain Light Rain
8:53 AM 53.1 °F 48.9 °F 86% 29.98 in 10.0 mi West 9.2 mph - 0.09 in Rain Light Rain
9:30 AM 53.6 °F 50.0 °F 88% 30.00 in 2.5 mi West 8.1 mph - 0.01 in Rain Rain
9:39 AM 53.6 °F 50.0 °F 88% 30.00 in 3.0 mi WNW 11.5 mph 16.1 mph 0.02 in Rain Light Rain
9:46 AM 53.6 °F 50.0 °F 88% 30.00 in 6.0 mi WNW 8.1 mph - 0.02 in Rain Light Rain
9:53 AM 54.0 °F 50.0 °F 86% 30.01 in 10.0 mi WNW 8.1 mph - 0.03 in Rain Light Rain
10:13 AM 55.4 °F 51.8 °F 88% 30.02 in 10.0 mi West 6.9 mph - 0.00 in   Overcast
10:48 AM 55.4 °F 50.0 °F 82% 30.04 in 10.0 mi WNW 11.5 mph 20.7 mph 0.00 in   Overcast
10:53 AM 55.0 °F 50.0 °F 83% 30.05 in 10.0 mi WNW 9.2 mph - 0.00 in   Overcast
11:25 AM 53.6 °F 48.2 °F 82% 30.06 in 10.0 mi West 13.8 mph 20.7 mph 0.00 in Rain Light Rain
11:45 AM 55.4 °F 48.2 °F 77% 30.07 in 10.0 mi West 9.2 mph 18.4 mph 0.00 in   Overcast
11:53 AM 55.0 °F 48.9 °F 80% 30.08 in 10.0 mi West 10.4 mph - 0.00 in   Overcast
12:41 PM 57.2 °F 50.0 °F 77% 30.09 in 10.0 mi West 11.5 mph 17.3 mph N/A   Overcast
12:53 PM 57.9 °F 50.0 °F 75% 30.10 in 10.0 mi West 16.1 mph 21.9 mph 0.00 in   Overcast
1:50 PM 57.2 °F 48.2 °F 72% 30.11 in 10.0 mi WNW 10.4 mph 19.6 mph N/A   Overcast
1:53 PM 57.9 °F 48.0 °F 70% 30.12 in 10.0 mi WSW 9.2 mph 16.1 mph N/A   Overcast
2:08 PM 57.2 °F 48.2 °F 72% 30.12 in 10.0 mi West 9.2 mph - N/A   Overcast
2:53 PM 57.0 °F 46.0 °F 67% 30.13 in 10.0 mi WSW 11.5 mph - N/A   Overcast
3:31 PM 57.2 °F 46.4 °F 67% 30.14 in 10.0 mi West 6.9 mph - N/A   Overcast
3:40 PM 59.0 °F 46.4 °F 63% 30.14 in 10.0 mi WSW 12.7 mph - N/A   Overcast
3:53 PM 59.0 °F 46.9 °F 64% 30.14 in 10.0 mi SW 13.8 mph 18.4 mph N/A   Overcast
4:07 PM 57.2 °F 46.4 °F 67% 30.14 in 10.0 mi WSW 9.2 mph - N/A   Mostly Cloudy
4:30 PM 57.2 °F 46.4 °F 67% 30.15 in 10.0 mi SW 12.7 mph - N/A   Overcast
4:40 PM 57.2 °F 46.4 °F 67% 30.15 in 10.0 mi West 10.4 mph - N/A   Overcast
4:53 PM 57.9 °F 46.9 °F 67% 30.15 in 10.0 mi West 9.2 mph - N/A   Overcast
5:53 PM 57.0 °F 46.0 °F 67% 30.15 in 10.0 mi West 9.2 mph - N/A   Overcast
6:53 PM 55.9 °F 46.9 °F 72% 30.15 in 10.0 mi WSW 8.1 mph - N/A   Overcast
7:49 PM 55.4 °F 48.2 °F 77% 30.16 in 10.0 mi West 3.5 mph - N/A   Overcast
7:53 PM 55.9 °F 48.0 °F 75% 30.16 in 10.0 mi West 4.6 mph - N/A   Overcast
8:00 PM 55.4 °F 46.4 °F 72% 30.16 in 10.0 mi Calm Calm - N/A   Overcast
8:53 PM 54.0 °F 46.9 °F 77% 30.16 in 10.0 mi West 4.6 mph - N/A   Mostly Cloudy
9:53 PM 52.0 °F 48.0 °F 86% 30.16 in 10.0 mi Calm Calm - N/A   Overcast
10:53 PM 52.0 °F 48.0 °F 86% 30.15 in 10.0 mi Calm Calm - N/A   Overcast
11:53 PM 51.1 °F 48.0 °F 89% 30.15 in 10.0 mi East 3.5 mph - N/A   Overcast